Steamboat Springs, CO

1:52 AM MDT on September 23, 2017 (GMT -0600)
Steamboat Springs-Adams

Weather History for KSBS - July, 2013

Change the Weather History Date:

Tuesday, July 23, 2013

  Actual Average Record
Temperature  
Mean Temperature 67 °F -  
Max Temperature 89 °F 80 °F 93 °F (1931)
Min Temperature 45 °F 44 °F 26 °F (1924)
Cooling Degree Days 2    
Growing Degree Days 17 (Base 50)    
Moisture  
Dew Point 16 °F    
Average Humidity 21    
Maximum Humidity 53    
Minimum Humidity 4    
Precipitation  
Precipitation 0.00 in - - ()
Sea Level Pressure  
Sea Level Pressure 30.23 in    
Wind  
Wind Speed 1 mph (SSE)    
Max Wind Speed 14 mph    
Max Gust Speed 18 mph    
Visibility 10 miles    
Events      
Averages and records for this station are not official NWS values.
T = Trace of Precipitation, MM = Missing Value Source: NWS Daily Summary

Daily Weather History Graph

Daily Weather History Graph

Search for Another Location

Airport or City:

Trip Planner

Search our weather history database for the weather conditions in past years. The results will help you decide how hot, cold, wet, or windy it might be!

Date:

Astronomy

Jul. 23, 2013 Rise Set
Actual Time 5:56 AM MDT 8:30 PM MDT
Civil Twilight 5:25 AM MDT 9:02 PM MDT
Nautical Twilight 4:45 AM MDT 9:41 PM MDT
Astronomical Twilight 4:01 AM MDT 10:25 PM MDT
Moon 9:00 PM MDT 7:09 AM MDT
Length of Visible Light 15h 36m
Length of Day
14h 34m
Full, 99% of the Moon is Illuminated
Jul 23
Full
Jul 29
Last Quarter
Aug 6
New
Aug 14
First Quarter
Aug 20
Full

Hourly Weather History & Observations

Time (MDT) Temp. Windchill Dew Point Humidity Pressure Visibility Wind Dir Wind Speed Gust Speed Precip Events Conditions
12:15 AM 59.2 °F - 25.0 °F 27% 30.21 in 10.0 mi Calm Calm - N/A   Clear
12:35 AM 56.1 °F - 27.9 °F 34% 30.21 in 10.0 mi Calm Calm - N/A   Clear
12:55 AM 58.8 °F - 23.5 °F 26% 30.21 in 10.0 mi East 4.6 mph - N/A   Clear
1:15 AM 55.8 °F - 25.7 °F 31% 30.22 in 10.0 mi Calm Calm - N/A   Clear
1:35 AM 55.6 °F - 25.0 °F 31% 30.22 in 10.0 mi Calm Calm - N/A   Clear
1:55 AM 53.8 °F - 24.4 °F 32% 30.22 in 10.0 mi Calm Calm - N/A   Clear
2:15 AM 54.0 °F - 23.9 °F 31% 30.22 in 10.0 mi Calm Calm - N/A   Clear
2:35 AM 52.7 °F - 25.2 °F 34% 30.22 in 10.0 mi Calm Calm - N/A   Clear
2:55 AM 50.9 °F - 27.1 °F 40% 30.23 in 10.0 mi Calm Calm - N/A   Clear
3:15 AM 50.0 °F - 26.6 °F 40% 30.23 in 10.0 mi Calm Calm - N/A   Clear
3:35 AM 49.3 °F - 27.7 °F 43% 30.23 in 10.0 mi Calm Calm - N/A   Clear
3:55 AM 49.8 °F - 26.8 °F 41% 30.23 in 10.0 mi Calm Calm - N/A   Clear
4:15 AM 47.1 °F - 24.8 °F 42% 30.24 in 10.0 mi Calm Calm - N/A   Clear
4:35 AM 48.9 °F - 23.2 °F 36% 30.24 in 10.0 mi Calm Calm - N/A   Clear
4:55 AM 46.4 °F 45.2 °F 29.8 °F 53% 30.24 in 10.0 mi ENE 3.5 mph - N/A   Clear
5:15 AM 47.3 °F - 28.2 °F 48% 30.24 in 10.0 mi Calm Calm - N/A   Clear
5:35 AM 47.1 °F - 28.2 °F 48% 30.24 in 10.0 mi Calm Calm - N/A   Clear
5:55 AM 48.7 °F - 26.2 °F 42% 30.25 in 10.0 mi Calm Calm - N/A   Clear
6:15 AM 46.6 °F - 26.1 °F 45% 30.26 in 10.0 mi Calm Calm - N/A   Clear
6:35 AM 46.2 °F - 26.6 °F 46% 30.26 in 10.0 mi Calm Calm - N/A   Clear
6:55 AM 45.9 °F - 28.6 °F 51% 30.27 in 10.0 mi Calm Calm - N/A   Clear
7:15 AM 45.7 °F - 27.5 °F 49% 30.27 in 10.0 mi Calm Calm - N/A   Clear
7:35 AM 47.5 °F - 26.8 °F 45% 30.27 in 10.0 mi Calm Calm - N/A   Clear
7:55 AM 52.3 °F - 27.3 °F 38% 30.28 in 10.0 mi Calm Calm - N/A   Clear
8:15 AM 54.7 °F - 25.0 °F 32% 30.28 in 10.0 mi Calm Calm - N/A   Clear
8:35 AM 56.7 °F - 25.0 °F 30% 30.29 in 10.0 mi Calm Calm - N/A   Clear
8:55 AM 60.1 °F - 26.1 °F 27% 30.28 in 10.0 mi Calm Calm - N/A   Clear
9:15 AM 63.3 °F - 26.4 °F 25% 30.29 in 10.0 mi Calm Calm - N/A   Clear
9:35 AM 65.5 °F - 24.8 °F 21% 30.28 in 10.0 mi Calm Calm - N/A   Clear
9:55 AM 68.0 °F - 23.7 °F 19% 30.28 in 10.0 mi Calm Calm - N/A   Clear
10:15 AM 69.8 °F - 25.3 °F 19% 30.28 in 10.0 mi Calm Calm - N/A   Clear
10:35 AM 74.1 °F - 22.3 °F 14% 30.28 in 10.0 mi Calm Calm - N/A   Clear
10:55 AM 74.8 °F - 22.3 °F 14% 30.28 in 10.0 mi Calm Calm - N/A   Clear
11:15 AM 78.3 °F - 19.0 °F 11% 30.28 in 10.0 mi Calm Calm - N/A   Clear
11:35 AM 81.0 °F - 9.3 °F 7% 30.27 in 10.0 mi Calm Calm - N/A   Clear
11:55 AM 82.4 °F - -0.4 °F 4% 30.26 in 10.0 mi Calm Calm - N/A   Clear
12:15 PM 84.2 °F - -4.0 °F 4% 30.26 in 10.0 mi South 5.8 mph - N/A   Clear
12:35 PM 84.7 °F - -8.9 °F 4% 30.25 in 10.0 mi WSW 8.1 mph - N/A   Clear
12:55 PM 83.5 °F - 1.6 °F 4% 30.25 in 10.0 mi Calm Calm - N/A   Clear
1:15 PM 86.9 °F - 3.7 °F 4% 30.24 in 10.0 mi WSW 5.8 mph - N/A   Clear
1:35 PM 87.3 °F - 2.1 °F 4% 30.24 in 10.0 mi Calm Calm - N/A   Clear
1:55 PM 88.0 °F - 0.9 °F 4% 30.23 in 10.0 mi South 5.8 mph - N/A   Clear
2:15 PM 88.9 °F - -0.6 °F 4% 30.22 in 10.0 mi WSW 6.9 mph 18.4 mph N/A   Clear
2:35 PM 88.9 °F - 0.5 °F 4% 30.22 in 10.0 mi NNW 5.8 mph - N/A   Clear
2:55 PM 88.3 °F - -2.9 °F 4% 30.22 in 10.0 mi NW 9.2 mph - N/A   Clear
3:15 PM 89.2 °F - -5.1 °F 4% 30.22 in 10.0 mi WNW 9.2 mph - N/A   Clear
3:35 PM 88.0 °F - -5.1 °F 4% 30.22 in 10.0 mi WNW 13.8 mph - N/A   Clear
3:55 PM 89.4 °F - -16.4 °F 4% 30.22 in 10.0 mi WNW 10.4 mph - N/A   Clear
4:15 PM 88.5 °F - -16.6 °F 4% 30.21 in 10.0 mi South 5.8 mph - N/A   Clear
4:35 PM 87.3 °F - -20.0 °F 4% 30.21 in 10.0 mi SSW 3.5 mph - N/A   Clear
4:55 PM 86.7 °F - -13.5 °F 4% 30.20 in 10.0 mi Calm Calm - N/A   Clear
5:15 PM 86.7 °F - -9.6 °F 4% 30.20 in 10.0 mi Calm Calm - N/A   Clear
5:35 PM 87.4 °F - -8.5 °F 4% 30.20 in 10.0 mi Calm Calm - N/A   Clear
5:55 PM 86.9 °F - -4.5 °F 4% 30.19 in 10.0 mi South 3.5 mph - N/A   Clear
6:15 PM 87.3 °F - -7.1 °F 4% 30.18 in 10.0 mi ESE 6.9 mph - N/A   Clear
6:35 PM 85.1 °F - -0.2 °F 4% 30.18 in 10.0 mi East 5.8 mph - N/A   Clear
6:55 PM 83.7 °F - 12.0 °F 7% 30.18 in 10.0 mi ESE 4.6 mph - N/A   Clear
7:15 PM 82.6 °F - 24.6 °F 12% 30.19 in 10.0 mi East 4.6 mph - N/A   Clear
7:35 PM 82.8 °F - 23.2 °F 11% 30.19 in 10.0 mi ENE 5.8 mph - N/A   Clear
7:55 PM 81.3 °F - 21.7 °F 11% 30.19 in 10.0 mi Calm Calm - N/A   Clear
8:15 PM 79.5 °F - 18.3 °F 10% 30.19 in 10.0 mi Calm Calm - N/A   Clear
8:35 PM 77.0 °F - 20.5 °F 12% 30.20 in 10.0 mi Calm Calm - N/A   Clear
8:55 PM 71.4 °F - 31.5 °F 23% 30.21 in 10.0 mi East 6.9 mph - N/A   Clear
9:15 PM 72.0 °F - 18.9 °F 13% 30.21 in 10.0 mi East 4.6 mph - N/A   Clear
9:35 PM 68.2 °F - 26.8 °F 21% 30.22 in 10.0 mi Calm Calm - N/A   Clear
9:55 PM 68.2 °F - 25.2 °F 20% 30.23 in 10.0 mi Calm Calm - N/A   Clear
10:15 PM 66.7 °F - 21.0 °F 18% 30.23 in 10.0 mi Calm Calm - N/A   Clear
10:35 PM 66.0 °F - 19.8 °F 17% 30.23 in 10.0 mi Calm Calm - N/A   Clear
10:55 PM 64.8 °F - 22.3 °F 20% 30.23 in 10.0 mi Calm Calm - N/A   Clear
11:15 PM 62.6 °F - 22.3 °F 21% 30.23 in 10.0 mi Calm Calm - N/A   Clear
11:35 PM 60.8 °F - 24.6 °F 25% 30.24 in 10.0 mi Calm Calm - N/A   Clear
11:55 PM 59.4 °F - 22.6 °F 24% 30.24 in 10.0 mi Calm Calm - N/A   Clear